Torna al catalogo

HORACIO

AttivoScienzaSSO
NORAD 59098·PAYLOAD·🇪🇸 Spain

Lanciato Mar 4, 2024 da Vandenberg Space Force Base

Loading…

Prossimi Passaggi (prossime 24 ore)

TLE

AggiornatoSource: Space-Track

Epoca: Sep 14, 2026, 14:53 UTC

1 59098U 24043A   26257.62072522  .00001198  00000-0  10430-3 0  9992
2 59098  97.8632  30.0550 0011115  80.0060 280.2416 14.98834269138069

Traccia HORACIO in tempo reale con AllMySat

Download on the App Store